Estación Meteorológica Peña el Pijo (Robertgarden) [ 07/11/20 02:25:00 CEST ]

Fecha Hora Presion(HPa) Temp (°C) Humedad % Rocio (°C) Viento ( m/s) Direccion Lluvia 1Hora(mm) Lluvia 24H(mm) LLuvia Total(mm)
2019-Dec-26 01:08:48 1015.600 - - - - WNW     39.88
2019-Dec-26 02:10:14 1015.200 - - - - WNW     39.88
2019-Dec-26 03:09:42 1015.200 - - - - WNW     39.88
2019-Dec-26 04:09:44 1014.900 - - - - WNW     39.88
2019-Dec-26 05:10:34 1015.000 - - - - WNW     39.88
2019-Dec-26 06:10:11 1014.700 - - - - WNW     39.88
2019-Dec-26 07:09:11 1015.000 - - - - WNW     39.88
2019-Dec-26 08:09:02 1015.400 - - - - WNW     39.88
2019-Dec-26 09:09:36 1015.800 - - - - WNW     39.88
2019-Dec-26 10:09:30 1016.000 - - - - WNW     39.88
2019-Dec-26 11:09:20 1016.200 - - - - WNW     39.88
2019-Dec-26 12:08:57 1015.900 - - - - WNW     39.88
2019-Dec-26 13:09:04 1015.100 - - - - WNW     39.88
2019-Dec-26 14:09:16 1014.900 - - - - WNW     39.88
2019-Dec-26 15:09:09 1014.600 - - - - WNW     39.88
2019-Dec-26 16:09:05 1015.300 - - - - WNW     39.88
2019-Dec-26 17:09:18 1015.800 - - - - WNW     39.88
2019-Dec-26 18:08:59 1016.100 - - - - WNW     39.88
2019-Dec-26 19:09:03 1017.100 - - - - WNW     39.88
2019-Dec-26 20:08:58 1017.700 - - - - WNW     39.88
2019-Dec-26 21:08:52 1017.600 - - - - WNW     39.88
2019-Dec-26 22:08:52 1017.900 - - - - WNW     39.88
2019-Dec-26 23:09:02 1018.000 - - - - WNW     39.88

Temperatura Máxima:    Temperatura Mínima:
Presión Máxima:1018.000 Hpa    Presión Mínima:1014.600 Hpa


Volver